Content
SEND FEEDBACK

Daily
Averages
Monthly
Summary
Philippines

CAVITE, PHILIPPINES


Home > Asia > Philippines
Elevation: 13 feet     Latitude: 14 30N     Longitude: 120 55E

WEATHER
 
SELECT A DAY
Number of Records: 172,724;   Date Range: 7/1/96 - 9/16/14
 
SHARE

PRINT THIS DATA

[ ← Previous Day ]
WEATHER ALMANAC - MAY 17, 2013
[ Next Day → ]
[ °C ]   °F
Weather ElementAverageHighLow
Temperature86.8 °F91.4 °F (10:00 am)82 °F (5:00 am)
Dewpoint78.3 °F80.6 °F (6:00 am)75.2 °F (10:00 am)
Humidity74.8 %94 % (6:00 am)55 % (2:00 pm)
Barometer29.83 in29.89 in (11:00 pm)29.77 in (2:00 pm)
Wind Speed7 mph15 mph (2:00 pm)
Weather ElementAverage
Visibility6.1 mi
Wind DirectionSSW (189.7 °)

Weather ElementTotal
Precipitation---
Cooling Degree Days21.7 (Base 65)
Growing Degree Days36.7 (Base 50)
Averaged from 31 records on May 17, 2013
WEATHER CONDITIONS BREAKOUT
WIND DIRECTION BREAKOUT
WEATHER BY HOUR - MAY 17, 2013
[ °C ]   °F
Local TimeTemperatureDewpointHumidityBarometerVisibilityWind DirectionWind SpeedGust SpeedPrecipitationEventsConditions
1:00 AM84.2 °F78.8 °F84 %29.86 in6.2 miVariable2.3 mphMostly Cloudy
2:00 AM84.0 °F78.0 °F78 %29.83 in6.0 miESE (120°)2.2 mphHaze
2:00 AM84.2 °F78.8 °F84 %29.80 in6.2 miVariable2.3 mphMostly Cloudy
3:00 AM84.2 °F78.8 °F84 %29.80 in6.2 miSouth (170°)3.5 mphMostly Cloudy
4:00 AM82.4 °F78.8 °F89 %29.80 in5.6 miVariable2.3 mphScattered Clouds
5:00 AM82.0 °F79.0 °F89 %29.82 in6.0 miSSE (160°)4.5 mphHaze
5:00 AM82.4 °F78.8 °F89 %29.80 in5.6 miSSE (160°)3.5 mphScattered Clouds
6:00 AM82.4 °F80.6 °F94 %29.83 in5.6 miSouth (180°)3.5 mphScattered Clouds
7:00 AM84.2 °F78.8 °F84 %29.86 in5.6 miVariable2.3 mphMostly Cloudy
8:00 AM87.0 °F78.0 °F67 %29.88 in6.0 miSE (140°)4.5 mphHaze
8:00 AM87.8 °F77.0 °F70 %29.86 in5.6 miSE (140°)6.9 mphScattered Clouds
9:00 AM89.6 °F77.0 °F66 %29.86 in6.2 miSE (130°)5.8 mphScattered Clouds
10:00 AM91.4 °F75.2 °F59 %29.86 in6.2 miSouth (190°)4.6 mphScattered Clouds
11:00 AM89.0 °F78.0 °F62 %29.86 in6.0 miWest (280°)11.2 mphHaze
11:00 AM89.6 °F77.0 °F66 %29.86 in6.2 miWest (280°)11.5 mphPartly Cloudy
12:00 PM91.4 °F78.8 °F66 %29.83 in6.2 miWest (270°)11.5 mphPartly Cloudy
1:00 PM91.4 °F78.8 °F66 %29.80 in6.2 miWest (270°)11.5 mphPartly Cloudy
2:00 PM91.0 °F77.0 °F55 %29.79 in6.0 miWest (270°)13.4 mphThunderstormThunderstorm
2:00 PM91.4 °F77.0 °F63 %29.77 in6.2 miWest (270°)15.0 mphScattered Clouds
3:00 PM89.6 °F78.8 °F70 %29.77 in6.2 miSSW (200°)9.2 mphPartly Cloudy
4:00 PM87.8 °F77.0 °F70 %29.77 in6.2 miSW (230°)5.8 mphMostly Cloudy
5:00 PM88.0 °F79.0 °F68 %29.78 in6.0 miWest (260°)11.2 mphHaze
5:00 PM87.8 °F78.8 °F75 %29.77 in6.2 miWest (260°)12.7 mphMostly Cloudy
6:00 PM87.8 °F78.8 °F75 %29.80 in6.2 miWSW (250°)11.5 mphMostly Cloudy
7:00 PM87.8 °F78.8 °F75 %29.80 in6.2 miSW (230°)8.1 mphMostly Cloudy
8:00 PM86.0 °F79.0 °F75 %29.83 in6.0 miWSW (240°)6.7 mphHaze
8:00 PM86.0 °F78.8 °F79 %29.83 in6.2 miWSW (240°)6.9 mphMostly Cloudy
9:00 PM86.0 °F78.8 °F79 %29.83 in6.2 miSSW (210°)5.8 mphMostly Cloudy
10:00 PM86.0 °F78.8 °F79 %29.86 in6.2 miSW (230°)5.8 mphMostly Cloudy
11:00 PM85.0 °F79.0 °F76 %29.89 in6.0 miWSW (250°)6.7 mphPartly Cloudy
11:00 PM84.2 °F78.8 °F84 %29.89 in6.2 miWSW (250°)5.8 mphThunderstormThunderstorm
Hourly data recorded from RPLL, located miles away from Cavite, Philippines







STORIES FROM OUR PARTNERS